Flag for Canada Weather past 2 weeks in Resolute Bay, Nunavut Territory, Canada

Now
-24 °F

Snow flurries. Clear.


Feels Like: -42 °F
Forecast: -24 / -17 °F
Wind: 7 mph from Southeast

Location: Resolute

Current Time: Dec 19, 2014 at 4:28:25 AM

Latest Report: Dec 19, 2014 at 4:00 AM


Visibility: 15 mi

Pressure: 30.14 "Hg

Humidity: 68%

Dew point: -31 °F

Location of Resolute BayLocation

Historic Weather in Resolute Bay — Graph

°F

Resolute Bay temperature yesterday

Maximum temperature yesterday: -24 °F (at 1:00 PM)
Minimum temperature yesterday: -29 °F (at 12:00 AM)
Average temperature yesterday: -28 °F

Past Weeks' High & Low Weather Summary

 TemperatureHumidityPressure
High97 °F (Dec 14, 7:00 PM)84% (Dec 16, 10:00 AM)30.34 "Hg (Dec 16, 10:00 AM)
Low-33 °F (Dec 14, 8:00 PM)44% (Dec 12, 9:00 AM)29.55 "Hg (Dec 16, 12:00 PM)
Average-20 °F72%29.96 "Hg
* Reported Dec 4 3:00 AM — Dec 19 3:00 AM, Resolute Bay, Weather by CustomWeather, © 2014

Note: Actual official high and low records may vary slightly from our data, if they occured in-between our weather recording intervals... More about our weather records

Advertising

Resolute Bay weather history for previous 24 hours

 ConditionsComfort  
Time TempWeatherWind HumidityBarometerVisibility
3:00 AM
Dec 19
-24 °FClear.2 mph68%30.15 "Hg15 mi
2:00 AM-26 °FClear.6 mph67%30.16 "Hg15 mi
1:00 AM-26 °FClear.6 mph67%30.16 "Hg15 mi
12:00 AM-26 °FSunny.6 mph67%30.17 "Hg15 mi
11:00 PM
Dec 18
-27 °FClear.10 mph67%30.17 "Hg15 mi
10:00 PM-27 °FSnow flurries. Clear.10 mph67%30.17 "Hg15 mi
9:00 PM-29 °FSnow flurries. Passing clouds.10 mph74%30.17 "Hg15 mi
8:00 PM-29 °FSnow flurries. Clear.10 mph74%30.17 "Hg15 mi
7:00 PM-29 °FSnow flurries. Clear.10 mph67%30.18 "Hg15 mi
6:00 PM-29 °FSnow flurries. Sunny.6 mph74%30.18 "Hg15 mi
5:00 PM-29 °FSnow flurries. Sunny.6 mph74%30.19 "Hg15 mi
4:00 PM-29 °FSnow flurries. Passing clouds.6 mph67%30.19 "Hg15 mi
3:00 PM-27 °FSnow flurries. Passing clouds.6 mph67%30.19 "Hg15 mi
2:00 PM-29 °FSnow flurries. Passing clouds.6 mph74%30.19 "Hg15 mi
1:00 PM-24 °FSnow flurries. Sunny.6 mph68%30.19 "Hg15 mi
12:00 PM-29 °FSnow flurries. Sunny.6 mph67%30.18 "Hg15 mi
11:00 AM-27 °FSnow flurries. Sunny.6 mph61%30.18 "Hg15 mi
10:00 AM-27 °FSnow flurries. Passing clouds.6 mph67%30.17 "Hg15 mi
9:00 AM-27 °FSnow flurries. Passing clouds.6 mph67%30.16 "Hg15 mi
8:00 AM-27 °FSnow flurries. Passing clouds.2 mph67%30.16 "Hg15 mi
7:00 AM-29 °FSnow flurries. Passing clouds.6 mph74%30.15 "Hg15 mi
6:00 AM-27 °FSnow flurries. Scattered clouds.6 mph67%30.15 "Hg15 mi
5:00 AM-29 °FSnow flurries. Clear.6 mph67%30.15 "Hg15 mi
4:00 AM-29 °FSnow flurries. Clear.6 mph67%30.14 "Hg15 mi
Weather by CustomWeather, © 2014

See weather overviewHow to use our weather pages